Kodiak, AK

10:15 AM AKDT on May 26, 2017 (GMT -0800)
Kodiak

Weather History for PADQ - March, 2013

Change the Weather History Date:

Sunday, March 10, 2013

  Actual Average Record
Temperature  
Mean Temperature 34 °F 32 °F  
Max Temperature 41 °F 37 °F 49 °F (1931)
Min Temperature 26 °F 27 °F 1 °F (1966)
Degree Days  
Heating Degree Days 31 33  
Month to date heating degree days 299 330  
Since 1 July heating degree days 6220 6202  
Cooling Degree Days 0 0  
Month to date cooling degree days 0 0  
Year to date cooling degree days 0 0  
Moisture  
Dew Point 21 °F    
Average Humidity 0    
Maximum Humidity 0    
Minimum Humidity 0    
Precipitation  
Precipitation T in 0.17 in 1.73 in (1993)
Month to date precipitation 3.09 1.80  
Year to date precipitation 19.27 16.23  
Snow  
Snow T in 0.40 in 8.40 in (1999)
Month to date snowfall 4.0 3.9  
Since 1 July snowfall 52.4 53.3  
Snow Depth 0.00 in    
Sea Level Pressure  
Sea Level Pressure 30.17 in    
Wind  
Wind Speed 9 mph (West)    
Max Wind Speed 26 mph    
Max Gust Speed 39 mph    
Visibility 10 miles    
Events Snow    
T = Trace of Precipitation, MM = Missing Value Source: NWS Daily Summary

Daily Weather History Graph

Daily Weather History Graph

Search for Another Location

Airport or City:

Trip Planner

Search our weather history database for the weather conditions in past years. The results will help you decide how hot, cold, wet, or windy it might be!

Date:

Astronomy

Mar. 10, 2013 Rise Set
Actual Time 8:38 AM AKDT 8:02 PM AKDT
Civil Twilight 7:59 AM AKDT 8:41 PM AKDT
Nautical Twilight 7:14 AM AKDT 9:27 PM AKDT
Astronomical Twilight 6:27 AM AKDT 10:14 PM AKDT
Moon 7:50 AM AKDT (3/10) 7:22 PM AKDT (3/10)
Length of Visible Light 12h 42m
Length of Day
11h 24m
Waning Crescent, 1% of the Moon is Illuminated
Mar 10
Waning Crescent
Mar 11
New
Mar 19
First Quarter
Mar 27
Full
Apr 2
Last Quarter

Hourly Weather History & Observations

Time (AKDT) Temp. Windchill Dew Point Humidity Pressure Visibility Wind Dir Wind Speed Gust Speed Precip Events Conditions
12:53 AM 27.0 °F 20.5 °F 19.9 °F 75% 30.23 in 10.0 mi West 5.8 mph - N/A   Clear
1:53 AM 28.0 °F 22.8 °F 19.0 °F 69% 30.23 in 10.0 mi NNW 4.6 mph - N/A   Partly Cloudy
3:53 AM 32.0 °F - 18.0 °F 56% 30.23 in 10.0 mi Calm Calm - N/A   Partly Cloudy
4:53 AM 30.0 °F 26.5 °F 18.0 °F 61% 30.22 in 10.0 mi ESE 3.5 mph - N/A   Clear
5:53 AM 30.0 °F - 21.0 °F 69% 30.22 in 10.0 mi Calm Calm - N/A   Mostly Cloudy
6:53 AM 30.0 °F - 23.0 °F 75% 30.21 in 10.0 mi Calm Calm - N/A   Overcast
7:53 AM 32.0 °F 28.7 °F 21.9 °F 66% 30.19 in 10.0 mi SSE 3.5 mph - N/A   Overcast
8:53 AM 32.0 °F - 21.0 °F 64% 30.16 in 10.0 mi Calm Calm - N/A   Scattered Clouds
9:53 AM 33.1 °F - 23.0 °F 66% 30.13 in 10.0 mi Calm Calm - N/A   Overcast
10:53 AM 35.1 °F 25.9 °F 24.1 °F 64% 30.10 in 10.0 mi SSW 13.8 mph - N/A   Overcast
11:53 AM 37.0 °F 30.4 °F 27.0 °F 67% 30.08 in 10.0 mi SSW 9.2 mph - N/A   Mostly Cloudy
12:53 PM 39.9 °F 30.2 °F 21.9 °F 49% 30.08 in 10.0 mi WSW 20.7 mph 31.1 mph 0.00 in   Scattered Clouds
1:53 PM 37.9 °F 27.3 °F 23.0 °F 55% 30.11 in 10.0 mi West 21.9 mph 27.6 mph N/A   Scattered Clouds
2:51 PM 33.8 °F 25.8 °F 28.4 °F 81% 30.12 in 2.5 mi NW 10.4 mph 23.0 mph 0.00 in Snow Light Snow
2:53 PM 33.1 °F 24.4 °F 27.0 °F 78% 30.13 in 2.5 mi WNW 11.5 mph 20.7 mph 0.00 in Snow Light Snow
3:53 PM 37.9 °F 25.3 °F 21.9 °F 53% 30.12 in 10.0 mi West 32.2 mph 42.6 mph 0.00 in   Scattered Clouds
4:53 PM 37.9 °F 26.3 °F 21.0 °F 51% 30.15 in 10.0 mi West 26.5 mph 38.0 mph N/A   Scattered Clouds
5:53 PM 36.0 °F 24.4 °F 21.0 °F 55% 30.16 in 10.0 mi West 23.0 mph 31.1 mph N/A   Scattered Clouds
6:53 PM 35.1 °F 23.8 °F 17.1 °F 48% 30.18 in 10.0 mi West 20.7 mph 33.4 mph N/A   Scattered Clouds
7:53 PM 34.0 °F 22.1 °F 19.9 °F 56% 30.19 in 10.0 mi WNW 21.9 mph 27.6 mph N/A   Scattered Clouds
8:53 PM 33.1 °F 22.6 °F 19.0 °F 56% 30.21 in 10.0 mi West 16.1 mph 24.2 mph N/A   Scattered Clouds
9:53 PM 33.1 °F 22.2 °F 19.0 °F 56% 30.21 in 10.0 mi WNW 17.3 mph 29.9 mph N/A   Scattered Clouds
10:53 PM 32.0 °F 20.1 °F 18.0 °F 56% 30.22 in 10.0 mi West 19.6 mph 32.2 mph N/A   Clear
11:53 PM 32.0 °F 24.2 °F 18.0 °F 56% 30.25 in 10.0 mi WNW 9.2 mph 19.6 mph N/A   Clear
12:53 AM 32.0 °F 21.2 °F 19.0 °F 59% 30.25 in 10.0 mi NW 16.1 mph 21.9 mph N/A   Clear